[[{"header":{"parameterUnit":"m.s-1","parameterCategory":1,"la1":30.2991,"la2":30.254,"lo1":-89.0895,"lo2":-89.0444,"dy":0.0017,"dx":0.0017,"nx":28,"ny":28,"refTime":"2024-05-04T21:00:00:Z","depth":0,"parameterNumber":2,"parameterNumberName":"U-component_of_WINDS"},"data":[0,0,0,0,0,0,0,0,0,0,0,0,0,0,0,0,0,0,0,0,0,0,0,0,0,0,0,0,0,0,0,0,0,0,0,0,0,0,0,0,0,0,0,0,0,0,0,0,0,0,0,0,0,0,0,0,0,0,-0.8949,-0.8948,0,-0.8919,-0.8919,-0.8918,-0.8879,-0.8878,-0.8878,-0.8877,-0.8849,-0.8849,-0.8849,0,0,0,0,0,0,0,0,0,0,0,0,0,-0.8974,-0.8974,-0.8949,-0.8948,-0.8948,-0.8919,-0.8919,-0.8918,-0.8879,-0.8878,-0.8877,-0.8877,-0.8849,-0.8849,-0.8849,0,0,0,0,0,0,0,0,0,0,0,0,0,-0.8956,-0.8974,-0.8949,-0.8925,-0.8922,-0.8919,-0.8919,-0.8918,-0.8879,-0.8878,-0.8877,-0.8876,-0.8849,-0.8849,-0.8849,-0.8867,0,0,-0.8848,-0.8848,0,0,0,0,0,0,0,0,-0.8957,-0.8955,-0.8929,-0.8927,-0.8924,-0.8902,-0.8917,-0.8901,-0.8879,-0.8896,-0.8877,-0.8876,-0.8868,-0.8866,-0.8862,-0.8866,-0.8865,-0.8848,-0.8848,-0.8848,-0.8848,0,0,0,0,0,0,0,-0.8958,-0.8956,-0.8937,-0.8929,-0.8925,-0.8916,-0.8913,-0.8914,-0.8888,-0.8894,-0.8891,-0.8888,-0.8866,-0.8863,-0.8862,-0.8864,-0.8848,-0.8848,-0.8848,-0.8848,-0.8882,-0.8883,0,0,0,0,0,0,-0.8963,-0.8957,-0.8938,-0.8936,-0.8938,-0.8917,-0.8913,-0.891,-0.8887,-0.8883,-0.8889,-0.8886,-0.8864,-0.8862,-0.886,-0.8881,-0.8848,-0.8848,-0.8848,-0.8881,-0.8883,-0.8884,0,0,0,0,0,0,-0.8963,-0.8961,-0.8939,-0.8946,-0.8942,-0.8917,-0.8915,-0.891,-0.8906,-0.8884,-0.8879,-0.889,-0.8863,-0.8861,-0.8866,-0.8879,-0.8848,-0.8848,-0.888,-0.8882,-0.8883,-0.8922,0,0,0,0,0,0,-0.8964,-0.8962,-0.8968,-0.8946,-0.8942,-0.8945,-0.8915,-0.891,-0.8906,-0.8902,-0.8884,-0.888,-0.8862,-0.8866,-0.8866,-0.8879,-0.8847,-0.8879,-0.8881,-0.8883,-0.8919,-0.8925,-0.8929,0,0,0,0,0,-0.8965,-0.8981,-0.8968,-0.8966,-0.8949,-0.8945,-0.8943,-0.8922,-0.8907,-0.8914,-0.8899,-0.888,-0.8878,-0.8867,-0.8866,-0.8879,-0.8878,-0.888,-0.8883,-0.8917,-0.8924,-0.8929,0,0,0,0,0,0,-0.9005,-0.8977,-0.8964,-0.8972,-0.8961,-0.8939,-0.8946,-0.8929,-0.8923,-0.892,-0.8894,-0.889,-0.8899,-0.8889,-0.8878,-0.8896,-0.8875,-0.8877,-0.8902,-0.8908,-0.8913,-0.8915,-0.8847,0,0,0,0,0,-0.9015,-0.9013,-0.8989,-0.8999,-0.8995,-0.8971,-0.8969,-0.8953,-0.8941,-0.8937,-0.8923,-0.8913,-0.891,-0.8908,-0.8904,-0.8918,-0.8914,-0.8926,-0.8931,-0.8935,-0.8938,-0.8945,-0.895,-0.8891,-0.8891,-0.8891,0,0,-0.9035,-0.902,-0.9021,-0.9007,-0.8997,-0.8997,-0.8968,-0.8969,-0.8969,-0.8937,-0.8941,-0.893,-0.8918,-0.8927,-0.8931,-0.892,-0.8953,-0.8938,-0.8942,-0.8942,-0.8948,-0.8953,-0.8958,-0.8893,-0.8893,-0.8892,0,0,-0.9072,-0.906,-0.9067,-0.9057,-0.9042,-0.9027,-0.9028,-0.9008,-0.9,-0.9003,-0.898,-0.8979,-0.8975,-0.8966,-0.8962,-0.8996,-0.8979,-0.8995,-0.9021,-0.9028,-0.9033,-0.9037,-0.9049,-0.9054,-0.8998,-0.8998,-0.8998,0,-0.91,-0.9097,-0.9073,-0.9075,-0.907,-0.9041,-0.9049,-0.9041,-0.9025,-0.9023,-0.9011,-0.9004,-0.8993,-0.9001,-0.9009,-0.9006,-0.9008,-0.8997,-0.9034,-0.9038,-0.9041,-0.9053,-0.9058,-0.9,-0.9,-0.8999,-0.8999,0,-0.9132,-0.9131,-0.9139,-0.9124,-0.912,-0.9125,-0.9102,-0.9101,-0.9086,-0.9072,-0.9076,-0.9062,-0.9055,-0.9055,-0.9041,-0.9061,-0.9055,-0.9038,-0.9017,-0.9049,-0.906,-0.9064,-0.9003,-0.9002,-0.9002,-0.9001,0,0,-0.9194,-0.9165,-0.9168,-0.9161,-0.9142,-0.9141,-0.9145,-0.9137,-0.9137,-0.9128,-0.9131,-0.9127,-0.9112,-0.9107,-0.9091,-0.9098,-0.9126,-0.9081,-0.908,-0.909,-0.9148,-0.916,-0.9166,-0.9114,-0.9115,-0.9116,-0.9149,0,-0.9227,-0.9231,-0.921,-0.922,-0.9219,-0.9191,-0.9195,-0.9184,-0.9171,-0.9169,-0.9156,-0.9154,-0.9134,-0.9131,-0.9135,-0.9121,-0.9137,-0.9119,-0.9118,-0.9118,-0.9122,-0.9171,-0.9184,-0.9217,-0.9153,-0.9154,-0.9154,0,-0.9267,-0.9259,-0.9269,-0.9249,-0.9248,-0.9251,-0.9243,-0.9241,-0.9228,-0.9219,-0.9213,-0.9194,-0.9198,-0.9177,-0.9182,-0.9169,-0.9168,-0.9161,-0.9162,-0.9161,-0.9138,-0.9172,-0.9226,-0.9231,-0.916,-0.916,-0.9159,0,-0.9311,-0.9303,-0.9308,-0.9302,-0.928,-0.9283,-0.9274,-0.926,-0.9257,-0.9249,-0.9247,-0.9241,-0.9237,-0.9233,-0.9214,-0.92,-0.9221,-0.9198,-0.9214,-0.9214,-0.9219,-0.9219,-0.9274,-0.9218,-0.9218,-0.9218,-0.9218,0,-0.9351,-0.9359,-0.9327,-0.933,-0.9338,-0.9313,-0.9322,-0.931,-0.9298,-0.9299,-0.9275,-0.9277,-0.9251,-0.925,-0.9235,-0.9241,-0.924,-0.9233,-0.9229,-0.9235,-0.9236,-0.9234,-0.9232,-0.9219,-0.9219,-0.9219,-0.9218,0,-0.9402,-0.9382,-0.9385,-0.9363,-0.9358,-0.9364,-0.9346,-0.9348,-0.9334,-0.9335,-0.9334,-0.9312,-0.931,-0.929,-0.9283,-0.9273,-0.9286,-0.9277,-0.929,-0.9287,-0.9304,-0.9303,-0.9359,-0.9366,-0.9305,-0.9306,-0.9306,0,-0.943,-0.9434,-0.9413,-0.9411,-0.9403,-0.9401,-0.9397,-0.9373,-0.937,-0.9357,-0.9361,-0.9356,-0.9351,-0.9349,-0.9333,-0.9328,-0.9319,-0.9339,-0.9318,-0.9325,-0.932,-0.932,-0.9321,-0.9344,-0.9345,-0.9346,-0.9346,0,-0.948,-0.9469,-0.9464,-0.9456,-0.9452,-0.9445,-0.9436,-0.9436,-0.941,-0.9408,-0.9405,-0.9401,-0.9394,-0.939,-0.9382,-0.9374,-0.9356,-0.9353,-0.9356,-0.9363,-0.937,-0.9367,-0.9302,-0.9352,-0.9351,-0.9351,-0.935,-0.935,-0.952,-0.9523,-0.9508,-0.9504,-0.9494,-0.9487,-0.9488,-0.9473,-0.947,-0.9461,-0.9448,-0.9447,-0.9434,-0.9422,-0.9415,-0.9414,-0.9404,-0.9408,-0.941,-0.9411,-0.9415,-0.937,-0.9413,-0.9412,-0.9412,-0.9412,-0.9412,0,-0.957,-0.9559,-0.9555,-0.9543,-0.9539,-0.9522,-0.9511,-0.951,-0.9509,-0.9498,-0.9494,-0.949,-0.9486,-0.947,-0.9464,-0.9467,-0.9459,-0.9466,-0.9466,-0.9464,-0.9424,-0.9422,-0.9473,-0.9473,-0.9473,-0.9473,-0.9473,-0.9473,-0.9595,-0.96,-0.9587,-0.9587,-0.9576,-0.9574,-0.9569,-0.9562,-0.9554,-0.9551,-0.9547,-0.9536,-0.9523,-0.9516,-0.9512,-0.9508,-0.9507,-0.9517,-0.951,-0.9473,-0.9467,-0.9462,-0.9459,-0.9517,-0.9517,-0.955,-0.9551,-0.9551]},{"header":{"parameterUnit":"m.s-1","parameterCategory":1,"la1":30.2991,"la2":30.254,"lo1":-89.0895,"lo2":-89.0444,"dy":0.0017,"dx":0.0017,"nx":28,"ny":28,"refTime":"2024-05-04T21:00:00:Z","depth":0,"parameterNumber":3,"parameterNumberName":"V-component_of_WINDS"},"data":[0,0,0,0,0,0,0,0,0,0,0,0,0,0,0,0,0,0,0,0,0,0,0,0,0,0,0,0,0,0,0,0,0,0,0,0,0,0,0,0,0,0,0,0,0,0,0,0,0,0,0,0,0,0,0,0,0,0,2.4346,2.4346,0,2.4408,2.4408,2.4409,2.4415,2.4415,2.4414,2.4413,2.4475,2.4477,2.4479,0,0,0,0,0,0,0,0,0,0,0,0,0,2.423,2.4232,2.4345,2.4346,2.4347,2.4408,2.4408,2.4409,2.4415,2.4414,2.4414,2.4413,2.4474,2.4476,2.4479,0,0,0,0,0,0,0,0,0,0,0,0,0,2.4285,2.4232,2.4345,2.4357,2.4359,2.4407,2.4408,2.4409,2.4415,2.4414,2.4413,2.4413,2.4473,2.4476,2.4479,2.4519,0,0,2.449,2.4491,0,0,0,0,0,0,0,0,2.4281,2.4289,2.4355,2.4357,2.4359,2.4403,2.439,2.4446,2.4416,2.4394,2.4413,2.4412,2.4451,2.4456,2.447,2.4522,2.4525,2.449,2.4492,2.4493,2.4494,0,0,0,0,0,0,0,2.4278,2.4286,2.437,2.4356,2.4358,2.4359,2.4366,2.4401,2.4427,2.4396,2.4396,2.4404,2.4452,2.4467,2.4471,2.4526,2.449,2.4493,2.4495,2.4496,2.4612,2.4613,0,0,0,0,0,0,2.4272,2.4283,2.4368,2.4372,2.4317,2.4362,2.4369,2.4389,2.4427,2.4432,2.4405,2.4404,2.4462,2.4468,2.4474,2.4522,2.4493,2.4497,2.4498,2.4611,2.4613,2.4614,0,0,0,0,0,0,2.4269,2.4279,2.4366,2.4328,2.4339,2.4365,2.4387,2.4391,2.4406,2.4433,2.4438,2.4415,2.4461,2.4469,2.4508,2.4524,2.4498,2.4501,2.461,2.4612,2.4613,2.4619,0,0,0,0,0,0,2.4266,2.4279,2.4295,2.4328,2.4341,2.4399,2.4388,2.4393,2.4412,2.4412,2.4444,2.4449,2.4461,2.4503,2.4511,2.4528,2.4504,2.4609,2.4611,2.4613,2.4618,2.4621,2.4624,0,0,0,0,0,2.4262,2.4294,2.4295,2.4306,2.4361,2.44,2.4408,2.4422,2.4413,2.4429,2.4447,2.4448,2.4521,2.4507,2.4516,2.4535,2.4608,2.461,2.4612,2.4616,2.462,2.4624,0,0,0,0,0,0,2.4261,2.4298,2.4301,2.4344,2.4369,2.4401,2.4422,2.4425,2.4453,2.4451,2.4467,2.4474,2.4512,2.4527,2.451,2.4574,2.4563,2.4568,2.4563,2.4567,2.457,2.4565,2.4506,0,0,0,0,0,2.4266,2.4295,2.4326,2.4361,2.4374,2.4396,2.4413,2.4422,2.4448,2.4458,2.4479,2.4503,2.4532,2.455,2.4578,2.462,2.4627,2.4637,2.464,2.4642,2.4646,2.4668,2.4673,2.4622,2.4622,2.4622,0,0,2.4276,2.43,2.4318,2.4362,2.4382,2.4411,2.4404,2.4436,2.4457,2.4463,2.4501,2.4517,2.4545,2.4585,2.4604,2.4599,2.4662,2.4646,2.4647,2.4649,2.4671,2.4676,2.468,2.4623,2.4623,2.4623,0,0,2.431,2.4331,2.4363,2.4383,2.4414,2.4429,2.4436,2.4468,2.4479,2.4517,2.4522,2.4547,2.4596,2.4616,2.4632,2.4673,2.4674,2.4681,2.4697,2.4718,2.4722,2.4726,2.4739,2.4744,2.4685,2.4685,2.4685,0,2.4318,2.4363,2.4378,2.4409,2.4428,2.4435,2.4467,2.4485,2.4524,2.4536,2.453,2.4592,2.4611,2.4656,2.4666,2.4679,2.4687,2.4678,2.472,2.4724,2.4728,2.4741,2.4746,2.4685,2.4685,2.4685,2.4685,0,2.4372,2.4403,2.4424,2.4462,2.4483,2.4514,2.4533,2.4552,2.4559,2.4573,2.4612,2.4636,2.4668,2.4679,2.4686,2.4725,2.472,2.4717,2.4707,2.4733,2.4746,2.4751,2.4686,2.4686,2.4686,2.4686,0,0,2.4407,2.4452,2.4459,2.4476,2.451,2.4534,2.4565,2.4597,2.4613,2.4639,2.4665,2.4706,2.4703,2.4722,2.4731,2.475,2.4779,2.4744,2.4745,2.4749,2.4822,2.4823,2.4829,2.478,2.4781,2.4782,2.4819,0,2.4443,2.45,2.4514,2.4561,2.4589,2.4596,2.4623,2.4646,2.466,2.4686,2.4701,2.473,2.4724,2.4735,2.4755,2.4771,2.4793,2.4769,2.4803,2.4804,2.4795,2.4836,2.4838,2.4871,2.4824,2.4825,2.4826,0,2.4494,2.4522,2.4572,2.4602,2.4614,2.4638,2.4669,2.4693,2.4719,2.4728,2.4749,2.4756,2.4787,2.4775,2.4817,2.48,2.4815,2.4825,2.4827,2.483,2.4816,2.4839,2.4882,2.4887,2.4834,2.4833,2.4832,0,2.4513,2.4563,2.4599,2.4613,2.465,2.4666,2.4682,2.4707,2.4725,2.4752,2.4763,2.4793,2.4808,2.483,2.4845,2.4835,2.4886,2.4875,2.4893,2.4893,2.4903,2.4902,2.4949,2.4914,2.4914,2.4914,2.4914,0,2.4553,2.4583,2.4608,2.4631,2.4664,2.468,2.4712,2.4728,2.4751,2.4775,2.4783,2.4805,2.4823,2.4848,2.4859,2.4892,2.4899,2.4907,2.4909,2.4906,2.4905,2.4915,2.4913,2.4915,2.4915,2.4914,2.4914,0,2.458,2.4598,2.4638,2.4669,2.4678,2.4701,2.4727,2.4748,2.4763,2.4794,2.4802,2.4824,2.4854,2.487,2.4907,2.4914,2.4951,2.4953,2.4942,2.4943,2.496,2.4958,2.5015,2.5022,2.4983,2.4983,2.4984,0,2.4604,2.4628,2.4661,2.4678,2.4694,2.4722,2.4741,2.4757,2.4776,2.4807,2.4824,2.4854,2.4879,2.4926,2.4945,2.4973,2.4975,2.4993,2.4979,2.4974,2.4974,2.4972,2.4974,2.4995,2.4995,2.4995,2.4996,0,2.4644,2.4652,2.4679,2.4709,2.4731,2.4755,2.4779,2.4792,2.4812,2.4833,2.4863,2.4883,2.492,2.495,2.4979,2.4994,2.4998,2.5,2.5005,2.5002,2.4995,2.4998,2.4948,2.4998,2.4998,2.4998,2.4998,2.4998,2.467,2.4691,2.4717,2.4747,2.4766,2.4789,2.481,2.4827,2.4853,2.4885,2.4893,2.4925,2.4949,2.4989,2.5005,2.503,2.5026,2.5035,2.5037,2.5038,2.5038,2.4991,2.5035,2.5035,2.5035,2.5035,2.5035,0,2.471,2.4727,2.4754,2.4787,2.481,2.4812,2.4839,2.4857,2.4886,2.4909,2.4933,2.4968,2.4996,2.5017,2.5046,2.5061,2.5063,2.5068,2.5067,2.507,2.504,2.5032,2.5066,2.5066,2.5066,2.5066,2.5066,2.5066,2.4733,2.4768,2.4779,2.4823,2.484,2.4872,2.4887,2.4907,2.4925,2.4963,2.4987,2.5001,2.5023,2.5053,2.5079,2.5084,2.5094,2.5098,2.5104,2.5076,2.5072,2.5069,2.5062,2.5101,2.5101,2.5131,2.5132,2.5132]}]]